TimeEST,TemperatureF,Dew PointF,Humidity,Sea Level PressureIn,VisibilityMPH,Wind Direction,Wind SpeedMPH,Gust SpeedMPH,PrecipitationIn,Events,Conditions,WindDirDegrees,DateUTC
12:54 AM,24.1,19.0,81,30.24,10.0,SW,12.7,-,N/A,,Overcast,220,2012-12-31 05:54:00
1:54 AM,25.0,19.9,81,30.22,10.0,SSW,11.5,-,N/A,,Overcast,210,2012-12-31 06:54:00
2:54 AM,26.1,21.0,81,30.20,10.0,SW,12.7,-,N/A,,Overcast,220,2012-12-31 07:54:00
3:54 AM,26.1,21.9,84,30.18,10.0,SSW,17.3,-,N/A,,Overcast,210,2012-12-31 08:54:00
4:54 AM,27.0,21.9,81,30.15,10.0,SW,16.1,-,N/A,,Overcast,220,2012-12-31 09:54:00
5:54 AM,27.0,21.9,81,30.15,10.0,SW,16.1,23.0,N/A,,Overcast,220,2012-12-31 10:54:00
6:54 AM,28.0,21.9,78,30.14,10.0,SW,16.1,-,N/A,,Overcast,220,2012-12-31 11:54:00
7:54 AM,28.0,21.9,78,30.13,10.0,SW,13.8,-,N/A,,Overcast,220,2012-12-31 12:54:00
8:54 AM,28.0,23.0,81,30.12,10.0,SW,13.8,-,N/A,,Overcast,220,2012-12-31 13:54:00
9:54 AM,30.9,23.0,72,30.12,10.0,SW,18.4,-,N/A,,Overcast,230,2012-12-31 14:54:00
10:54 AM,32.0,24.1,73,30.12,10.0,SW,18.4,-,N/A,,Overcast,230,2012-12-31 15:54:00
11:54 AM,33.1,25.0,72,30.10,10.0,SW,17.3,-,N/A,,Overcast,230,2012-12-31 16:54:00
12:44 PM,32.0,26.6,80,30.05,1.5,SW,18.4,29.9,0.00,Snow,Light Snow,230,2012-12-31 17:44:00
12:54 PM,30.9,28.0,89,30.07,1.2,SW,18.4,-,0.00,Snow,Snow,230,2012-12-31 17:54:00
1:18 PM,30.2,28.4,93,30.03,1.2,SW,16.1,-,0.01,Snow,Light Snow,230,2012-12-31 18:18:00
1:54 PM,30.9,28.9,92,30.06,1.8,SW,15.0,-,0.02,Snow,Snow,230,2012-12-31 18:54:00
2:35 PM,30.2,28.4,93,30.03,1.8,WSW,17.3,-,0.02,Snow,Snow,240,2012-12-31 19:35:00
2:54 PM,30.9,28.9,92,30.06,1.2,WSW,16.1,-,0.03,Snow,Snow,240,2012-12-31 19:54:00
3:54 PM,30.9,28.9,92,30.05,1.5,SW,12.7,-,0.02,Snow,Light Snow,230,2012-12-31 20:54:00
4:18 PM,30.2,28.4,93,30.02,2.5,SW,16.1,-,0.00,Snow,Light Snow,230,2012-12-31 21:18:00
4:40 PM,30.2,28.4,93,30.03,2.0,SW,17.3,-,0.00,Snow,Light Snow,230,2012-12-31 21:40:00
4:52 PM,30.2,30.2,100,30.03,1.2,WSW,17.3,-,0.00,Snow,Light Snow,240,2012-12-31 21:52:00
4:53 PM,30.9,30.0,96,30.06,1.2,WSW,18.4,-,0.00,Snow,Light Snow,240,2012-12-31 21:53:00
5:31 PM,30.2,30.2,100,30.02,2.0,WSW,15.0,-,0.01,Snow,Light Snow,240,2012-12-31 22:31:00
5:39 PM,30.2,30.2,100,30.02,3.0,SW,13.8,-,0.01,Snow,Light Snow,230,2012-12-31 22:39:00
5:54 PM,32.0,30.0,92,30.04,4.0,SW,13.8,-,0.01,Snow,Light Snow,230,2012-12-31 22:54:00
6:54 PM,32.0,30.0,92,30.05,7.0,WSW,15.0,-,0.00,,Overcast,250,2012-12-31 23:54:00
7:54 PM,32.0,30.0,92,30.07,3.0,WSW,12.7,-,0.00,Snow,Light Snow,250,2013-01-01 00:54:00
8:54 PM,32.0,30.0,92,30.06,6.0,WSW,10.4,-,0.00,Snow,Light Snow,240,2013-01-01 01:54:00
9:54 PM,32.0,30.0,92,30.06,9.0,West,10.4,-,0.00,,Overcast,270,2013-01-01 02:54:00
10:39 PM,30.2,28.4,93,30.04,9.0,West,11.5,-,N/A,,Overcast,270,2013-01-01 03:39:00
10:54 PM,30.9,28.9,92,30.06,8.0,West,9.2,-,N/A,,Overcast,280,2013-01-01 03:54:00
11:45 PM,30.2,28.4,93,30.06,8.0,West,9.2,-,N/A,,Overcast,270,2013-01-01 04:45:00
11:54 PM,30.0,28.0,92,30.09,8.0,West,9.2,-,N/A,,Overcast,270,2013-01-01 04:54:00